Wind_Speed
16 16 21 22 22 20 19 19 22 13 24 14 17 16 17 19 19 26 31 28 28 26 22 21 21 20 17 17 16 13 12 12 10 11 10 13 12 7 6 5 5 10 8 7
13 22 17 18 19 25 24 22 20 12 11 11 13 16 14 21 19 22 27 31 29 28 25 22 22 22 18 18 17 16 13 12 11 10 10 14 7 10 5 7 8 9 7 9
21 14 19 18 20 23 25 22 22 23 17 15 17 17 29 27 22 18 14 24 24 33 31 24 23 22 22 19 19 17 15 14 11 11 11 15 12 10 11 10 9 9 7 8
20 16 19 19 21 21 23 22 18 19 21 19 20 21 32 32 27 21 19 17 23 28 25 23 25 24 23 18 20 19 18 17 13 12 14 10 9 11 5 6 10 9 7 8
21 20 15 22 21 20 23 20 12 15 19 19 19 14 20 25 26 16 24 24 23 22 30 27 26 19 19 15 17 21 20 19 16 12 11 16 13 9 14 12 14 10 7 6
18 17 17 20 20 17 22 14 19 12 19 18 15 21 20 30 21 18 19 23 25 17 27 30 24 21 23 18 12 21 22 20 18 16 15 17 15 12 11 7 3 7 7 6
17 18 19 17 20 19 20 17 15 11 14 10 21 16 13 9 11 12 21 23 21 16 28 27 28 27 25 25 14 18 21 20 18 18 17 17 14 12 11 9 9 4 4 7
20 19 17 17 24 22 23 20 17 14 11 14 21 16 14 16 13 10 11 17 20 17 17 34 27 30 28 22 21 10 19 18 17 17 17 17 16 14 12 9 9 10 6 5
18 21 17 23 22 18 26 26 25 23 25 22 15 12 14 14 15 18 15 16 23 17 28 20 20 34 24 23 29 22 15 19 17 16 16 14 14 14 13 13 12 10 10 9
12 21 25 18 17 17 19 24 27 31 13 14 17 27 25 19 21 24 19 19 25 17 25 22 33 37 30 36 24 25 19 20 19 18 16 15 14 13 13 12 9 7 12 13
9 11 15 16 24 18 17 19 23 28 26 9 9 1 24 26 22 23 21 25 29 30 19 6 18 28 39 26 34 27 25 23 24 21 20 19 17 15 14 13 11 10 12 10
7 7 18 18 15 25 19 22 21 22 27 12 14 5 18 23 25 22 24 25 27 27 28 25 20 13 16 19 15 40 36 30 24 27 23 22 20 19 19 16 14 14 12 14
4 9 8 16 11 15 16 22 24 27 27 14 15 11 15 14 16 19 20 23 21 17 19 21 23 24 15 15 17 17 17 29 17 21 26 26 23 23 22 19 18 16 15 15
9 8 6 9 8 13 24 21 20 20 22 25 22 22 25 17 14 12 18 20 20 17 14 11 9 13 16 21 21 20 20 19 23 30 24 23 29 25 22 21 20 19 18 18
6 10 8 0 8 10 19 26 17 18 16 17 19 30 30 21 17 16 18 19 19 16 14 12 11 8 8 17 18 19 20 17 16 21 15 26 26 27 26 23 21 21 21 21
5 7 5 8 8 6 9 22 22 18 16 11 15 26 32 28 22 18 15 14 17 16 12 10 9 8 7 6 7 14 19 18 15 18 26 28 25 19 22 25 25 22 22 23
6 10 5 14 7 6 10 5 7 8 6 14 22 18 23 23 19 18 15 15 17 16 13 12 11 10 9 8 7 8 7 9 19 24 28 32 28 25 16 22 27 24 24 25
8 8 12 13 11 11 18 10 10 14 12 8 16 23 19 19 17 18 17 16 17 18 17 16 14 13 12 11 11 11 10 10 10 12 17 24 30 30 30 27 27 27 28 29
11 11 14 20 20 17 12 16 16 12 12 12 17 18 18 15 19 16 18 16 16 17 18 18 17 16 16 15 14 15 16 15 14 15 16 16 20 26 26 28 31 30 33 35
8 10 12 10 20 14 6 12 21 22 17 18 17 18 14 16 12 14 18 23 24 21 20 20 20 22 22 21 20 21 22 23 22 22 20 18 15 15 22 29 30 33 34 36
8 9 14 14 12 5 15 9 11 14 12 22 16 18 17 14 18 25 29 28 23 23 25 24 24 25 26 26 26 26 26 27 26 25 23 21 21 21 20 18 24 35 38 38
6 7 10 14 15 11 10 8 8 14 19 22 24 22 18 24 29 26 27 27 27 26 26 27 27 26 27 27 28 28 29 29 28 28 27 27 26 26 25 23 23 21 28 39
4 2 8 2 3 7 7 7 13 14 18 19 25 26 20 20 22 19 24 26 27 28 27 25 24 24 25 25 25 27 28 29 31 33 33 33 32 31 30 29 27 27 26 26
9 10 9 3 5 6 7 9 9 8 14 17 15 16 15 17 20 21 19 21 20 23 23 22 21 20 19 18 17 17 18 22 27 31 34 36 37 37 35 34 31 32 30 29
9 6 9 12 7 5 8 8 9 12 14 12 14 14 15 16 19 20 18 17 17 17 17 18 18 18 19 19 19 19 19 19 20 22 25 31 37 40 41 40 38 37 35 33
7 10 11 10 9 15 11 13 14 14 13 12 11 13 14 15 18 18 16 14 14 15 15 16 17 18 20 21 21 23 23 23 25 26 25 27 30 37 44 47 47 44 42 41
Wind_Direction
212 208 210 209 212 217 214 221 189 191 201 193 201 224 177 186 180 172 172 175 179 172 181 177 177 190 188 198 192 195 194 172 166 158 161 143 129 122 180 116 93 97 117 111
213 219 211 213 219 226 235 228 214 186 219 214 165 165 150 185 177 181 173 181 193 175 182 196 184 188 200 205 195 193 192 185 179 176 180 141 169 140 110 144 130 112 104 94
213 230 216 215 220 221 228 240 194 215 245 185 147 155 171 178 168 166 180 183 197 186 174 202 184 189 202 209 196 196 191 190 193 186 171 173 169 159 150 151 134 119 117 105
222 223 217 217 221 216 222 217 234 159 203 201 198 170 172 176 178 181 167 200 184 179 176 194 187 193 200 208 195 197 192 193 196 201 174 170 133 157 127 163 134 131 122 118
221 221 215 215 212 210 217 219 207 219 202 223 197 147 180 187 187 202 157 169 198 188 188 192 190 200 201 222 202 199 196 194 193 196 173 173 175 166 173 212 185 132 133 141
224 217 222 215 212 210 217 248 224 215 210 230 210 224 164 188 189 210 164 176 181 195 184 206 196 194 198 231 222 195 196 198 199 196 182 187 190 187 180 222 202 148 159 140
216 227 216 214 210 211 214 228 198 212 212 228 211 207 115 182 212 188 192 190 207 181 185 206 198 202 198 208 235 194 197 204 201 199 193 191 196 196 200 219 196 191 195 133
202 213 205 211 207 203 206 214 200 210 218 228 246 136 156 155 144 154 162 192 205 230 181 200 201 208 207 197 229 223 197 200 202 200 200 199 194 192 221 202 210 203 222 223
214 231 202 206 205 217 203 226 211 206 218 225 129 105 133 143 145 136 156 183 167 201 189 207 204 207 213 196 217 229 213 200 199 204 210 214 213 205 206 216 224 208 211 209
225 312 185 189 213 230 229 215 231 244 275 244 150 160 157 162 157 161 176 180 193 194 202 217 205 196 189 191 208 231 224 205 197 203 209 215 218 226 219 223 215 208 224 226
254 218 207 197 211 214 210 228 232 239 239 228 152 16 168 160 173 176 187 199 182 190 209 147 168 219 209 195 208 214 235 218 211 213 215 215 216 223 235 227 226 223 242 246
250 298 177 201 213 216 222 224 231 235 249 275 73 139 136 176 190 190 193 195 208 203 213 226 222 222 189 235 205 200 197 216 230 222 226 220 222 225 226 233 227 228 233 249
226 219 198 160 195 203 222 222 230 233 245 189 162 188 159 184 179 189 214 213 200 204 224 238 231 220 207 229 218 228 233 221 187 220 232 231 228 231 228 227 232 231 232 238
212 257 25 314 324 256 214 218 226 237 267 260 162 177 167 184 145 199 186 176 180 176 171 176 197 200 210 220 225 228 231 226 230 208 200 231 233 231 233 232 232 239 239 240
211 258 304 324 270 328 213 214 219 229 253 100 112 161 166 151 159 177 193 169 171 170 159 148 140 139 173 208 224 234 236 243 256 248 266 231 221 225 227 235 238 241 247 250
211 266 257 242 248 306 331 204 222 229 243 168 152 143 159 158 168 169 185 167 172 183 189 188 184 180 175 176 200 234 242 235 242 243 258 251 259 226 231 227 234 240 249 253
226 229 245 244 234 282 266 231 202 215 226 148 167 160 152 145 152 159 161 177 188 202 213 220 222 225 226 221 223 227 231 231 238 245 244 247 248 236 197 233 232 234 241 248
257 255 244 256 250 224 244 239 226 215 215 110 172 167 156 154 157 173 186 193 194 206 218 230 237 240 245 252 253 251 250 254 256 259 261 256 249 243 238 249 243 241 242 245
232 235 244 247 234 243 228 240 219 222 158 162 149 162 163 157 181 202 214 221 221 224 229 237 243 250 254 259 263 266 267 266 267 271 271 273 264 257 254 253 255 253 250 250
225 233 233 237 242 248 245 170 197 193 175 156 179 174 177 173 199 219 230 226 229 234 242 248 253 256 260 263 266 267 269 272 277 278 274 271 274 270 261 257 252 251 253 254
216 228 226 230 248 171 196 197 166 177 177 188 183 184 183 183 196 202 225 239 239 242 247 249 252 257 260 263 264 266 268 270 273 273 272 271 271 270 268 269 261 253 252 254
222 217 225 233 237 234 179 184 199 195 193 177 180 183 178 205 212 224 227 235 247 252 256 258 257 256 258 259 260 261 263 266 268 268 268 271 273 275 275 274 271 270 257 249
246 242 242 344 248 174 143 190 208 213 218 195 206 208 214 208 215 227 240 243 249 255 257 258 257 257 257 259 258 258 260 261 262 265 267 267 267 268 271 275 274 272 273 265
244 253 223 252 262 199 187 151 171 196 211 191 207 214 205 211 226 238 243 244 246 249 252 255 257 257 258 258 260 261 262 263 262 259 258 260 262 262 262 263 263 262 264 264
228 257 247 242 236 207 214 217 200 191 193 194 213 221 217 223 236 245 253 256 250 254 253 256 262 266 270 271 273 273 272 273 273 272 267 264 262 260 259 256 253 254 255 256
248 249 253 246 239 244 231 240 241 216 203 206 218 224 232 238 246 255 259 257 257 260 259 260 266 269 273 277 281 283 283 283 283 283 280 277 272 265 258 257 253 250 249 250
Height
3137 3140 3140 3143 3146 3146 3147 3148 3148 3151 3154 3158 3159 3165 3169 3177 3180 3181 3183 3186 3188 3192 3196 3197 3200 3200 3201 3202 3207 3210 3212 3215 3219 3222 3224 3225 3227 3229 3229 3228 3230 3232 3234 3232
3139 3137 3140 3143 3144 3144 3143 3145 3145 3149 3151 3153 3158 3165 3167 3174 3179 3184 3183 3185 3186 3190 3194 3195 3198 3199 3199 3200 3205 3208 3212 3215 3218 3221 3223 3224 3227 3229 3230 3230 3233 3232 3234 3233
3135 3136 3138 3141 3141 3142 3141 3141 3142 3147 3154 3151 3155 3166 3154 3174 3177 3182 3182 3183 3184 3186 3188 3191 3195 3197 3197 3197 3202 3206 3210 3214 3217 3219 3221 3222 3225 3229 3231 3232 3234 3233 3234 3234
3134 3135 3136 3137 3138 3140 3140 3141 3143 3145 3151 3150 3152 3156 3160 3166 3171 3177 3176 3181 3183 3184 3188 3191 3194 3194 3194 3195 3199 3203 3207 3212 3215 3217 3220 3223 3226 3228 3228 3229 3230 3233 3235 3235
3131 3132 3133 3135 3137 3139 3139 3141 3142 3144 3148 3146 3147 3157 3163 3166 3165 3169 3164 3172 3179 3182 3186 3191 3194 3195 3195 3194 3197 3200 3204 3209 3212 3216 3218 3222 3224 3226 3227 3230 3224 3231 3234 3236
3128 3131 3132 3134 3136 3138 3138 3139 3141 3143 3143 3140 3141 3146 3152 3158 3162 3162 3163 3170 3175 3179 3183 3188 3191 3194 3196 3194 3196 3199 3202 3206 3210 3214 3217 3220 3222 3227 3231 3231 3231 3232 3235 3236
3127 3127 3130 3133 3135 3136 3138 3137 3137 3141 3138 3136 3137 3142 3149 3155 3158 3153 3167 3170 3174 3175 3178 3180 3184 3190 3193 3193 3196 3199 3201 3204 3207 3210 3214 3217 3221 3228 3231 3231 3235 3235 3234 3236
3124 3125 3128 3130 3132 3134 3136 3134 3134 3137 3137 3137 3135 3139 3148 3155 3162 3166 3171 3172 3166 3169 3168 3177 3181 3189 3190 3195 3194 3197 3199 3201 3205 3208 3210 3213 3218 3224 3227 3231 3234 3236 3233 3234
3120 3121 3123 3127 3130 3133 3134 3133 3135 3133 3134 3133 3137 3148 3151 3154 3160 3165 3164 3166 3163 3165 3167 3167 3183 3185 3187 3188 3190 3188 3195 3196 3199 3203 3206 3209 3212 3218 3224 3229 3232 3233 3232 3235
3121 3121 3118 3125 3128 3130 3131 3136 3134 3129 3131 3128 3136 3141 3145 3150 3149 3150 3154 3158 3164 3171 3173 3173 3164 3176 3180 3180 3191 3191 3193 3195 3194 3197 3201 3203 3207 3211 3217 3222 3227 3230 3231 3233
3122 3126 3125 3125 3126 3129 3133 3132 3130 3131 3129 3127 3137 3145 3143 3148 3147 3147 3150 3156 3163 3165 3170 3162 3166 3173 3178 3178 3186 3194 3195 3197 3195 3195 3198 3199 3201 3205 3211 3218 3224 3227 3229 3233
3121 3118 3121 3122 3125 3128 3129 3131 3131 3130 3128 3126 3137 3148 3147 3146 3144 3147 3149 3153 3159 3163 3163 3168 3171 3171 3171 3154 3148 3180 3182 3193 3197 3198 3199 3199 3198 3200 3204 3211 3219 3224 3226 3228
3118 3118 3120 3119 3125 3126 3127 3128 3128 3128 3127 3127 3137 3145 3142 3148 3147 3146 3150 3151 3156 3159 3162 3162 3166 3171 3177 3178 3182 3179 3172 3183 3170 3197 3198 3200 3199 3197 3200 3205 3211 3218 3223 3226
3120 3119 3121 3126 3123 3124 3127 3127 3128 3127 3126 3121 3121 3143 3147 3141 3140 3146 3150 3150 3153 3156 3159 3160 3160 3165 3171 3176 3178 3180 3181 3187 3179 3175 3186 3193 3199 3201 3200 3202 3206 3211 3218 3222
3122 3121 3124 3124 3125 3121 3123 3126 3127 3129 3130 3131 3136 3139 3142 3143 3144 3149 3151 3151 3152 3155 3159 3162 3163 3164 3166 3168 3170 3172 3176 3180 3184 3189 3177 3182 3184 3195 3201 3203 3202 3206 3211 3218
3122 3123 3125 3125 3125 3124 3121 3123 3127 3130 3131 3132 3138 3140 3140 3143 3146 3152 3153 3153 3153 3155 3158 3161 3164 3167 3169 3170 3170 3170 3173 3178 3178 3184 3186 3187 3175 3173 3197 3201 3203 3202 3206 3212
3124 3125 3126 3126 3126 3126 3128 3126 3129 3132 3135 3132 3135 3142 3141 3144 3148 3151 3153 3153 3154 3156 3158 3160 3163 3166 3169 3171 3173 3174 3174 3175 3177 3179 3184 3184 3188 3190 3165 3195 3201 3197 3201 3206
3123 3124 3126 3125 3126 3128 3127 3126 3129 3133 3136 3135 3136 3142 3143 3145 3150 3151 3151 3151 3152 3155 3158 3160 3162 3164 3166 3169 3171 3173 3174 3173 3173 3173 3173 3174 3178 3184 3189 3192 3195 3192 3195 3201
3121 3123 3124 3124 3123 3125 3124 3125 3130 3133 3134 3137 3142 3145 3147 3149 3148 3147 3149 3150 3152 3153 3156 3158 3161 3162 3164 3166 3168 3170 3171 3172 3173 3172 3171 3169 3168 3171 3174 3179 3182 3187 3192 3197
3119 3119 3122 3121 3119 3118 3122 3121 3122 3128 3133 3136 3139 3143 3146 3148 3149 3147 3145 3147 3148 3151 3154 3156 3158 3159 3161 3162 3164 3166 3167 3168 3170 3171 3171 3171 3170 3169 3172 3175 3179 3183 3187 3190
3117 3119 3119 3120 3119 3120 3121 3121 3123 3128 3134 3133 3138 3140 3142 3144 3143 3139 3137 3143 3147 3149 3151 3153 3154 3155 3156 3158 3160 3160 3161 3162 3165 3165 3166 3168 3169 3170 3172 3173 3174 3177 3180 3183
3117 3118 3118 3120 3118 3118 3117 3120 3124 3123 3123 3127 3131 3133 3136 3135 3137 3135 3135 3139 3141 3143 3145 3147 3148 3150 3151 3151 3153 3154 3156 3156 3158 3159 3161 3162 3164 3166 3167 3169 3170 3171 3172 3175
3117 3115 3116 3117 3118 3116 3117 3116 3118 3119 3121 3124 3124 3127 3130 3133 3133 3130 3131 3135 3137 3137 3138 3139 3141 3143 3143 3145 3146 3147 3148 3150 3151 3152 3154 3155 3157 3159 3161 3162 3164 3165 3166 3166
3113 3114 3114 3116 3115 3116 3116 3116 3117 3118 3118 3120 3121 3122 3126 3128 3127 3127 3127 3129 3131 3132 3133 3133 3134 3135 3136 3137 3139 3139 3140 3141 3142 3144 3145 3146 3147 3150 3152 3154 3156 3157 3159 3159
3112 3112 3112 3112 3114 3113 3114 3114 3114 3116 3116 3118 3118 3120 3121 3123 3122 3122 3123 3125 3126 3127 3128 3129 3129 3130 3130 3131 3132 3132 3133 3134 3135 3135 3136 3138 3139 3140 3141 3144 3146 3148 3150 3151
3109 3110 3110 3110 3112 3111 3113 3111 3111 3112 3114 3115 3116 3117 3117 3118 3118 3118 3118 3120 3121 3121 3123 3124 3124 3125 3124 3124 3124 3124 3124 3125 3126 3127 3128 3129 3129 3130 3130 3130 3133 3136 3139 3141